STARLINK-32020, 60201

Orbit data source: Space-Track

STARLINK-32020, 60201 is a payload satellite owned by SpaceX/Seattle (US) in LEO that was launched on Wed, 03 Jul 2024 UTC via an FALCON 9 launch vehicle from the Air Force Eastern Test Range (AFETR). Payload-class satellites include a variety of spacecraft equipped with specific instruments for various scientific and technological missions. These include communications satellites like Starlink; space stations such as the ISS; scientific satellites like the Hubble; Earth observation satellites from companies like Planet Labs, Umbra, and HawkEye 360; GPS; miniature CubeSats for education and research; and military/defense satellites.

Loading next visibility...
Identifier
60201, 2024-124U
Orbit
LEO
Country
Flag of USUS
Related business
Manufacturer
SpaceX/Seattle
Mission
Operational Commercial Communications
Bus & Motor
STARLINK V2M, Unknown motor
Mass
730 kg wet, ~700 kg dry
Launch date (UTC)
2024-07-03 (1 year ago)
Launch vehicle
FALCON 9
Launch site
Air Force Eastern Test Range (AFETR)
Object type
Payload
Rocket body
Debris
Shape & HBR
Box + 2 Pan, 17.7 m
Radar Cross Section
33.884 m², Large (>1 m²)

Expand to show TLE details & history
Last TLE update: 1 day ago

TLE from 1 day ago
0 STARLINK-32020
1 60201U 24124U   25306.42035758  .00001511  00000-0  63146-4 0  9994
2 60201  53.1586 193.3978 0001332 101.9116 258.2034 15.30187193 74819
Epoch: 2025-11-02T10:05Z
TLE epoch observation values (Epoch: 2025-11-02T10:05:18.894Z)
Latitude
-0.00005°
Longitude
0.13269°
Altitude
476.34 km
Speed
7.629 km/s
True Right ascension
12h 53m 35s
True Declination
0° 00' 00"
Sunlit
Object was in daylight at epoch
Visualization orbit readout
Latitude
Unknown
Longitude
Unknown
Altitude
Unknown
Speed
Unknown
Apparent Right ascension
Unknown
Apparent Declination
Unknown
Sunlit
N/A
Visualization observer readout
Local Sidereal Time
08:20:28
Azimuth
Unknown
Elevation
Unknown
Doppler factor
Unknown
Orbital elements
Apogee altitude
476.423 km
Perigee altitude
474.597 km
Semi-major axis
6,853.647 km
Eccentricity
0.00013
Inclination
53.1586°
RAAN
193.3978°
Arg. of periapsis
101.9116°
True anomaly
258.18846°
Mean anomaly
258.2034°
Eccentric anomaly
258.19593°
Mean motion
3.82526 °/min
Orbital period
94.11 mins
BSTAR
0.000063146
Loading maneuver chart data...
Computing Atmospheric mass density...
Loading historical data...
Loading historical data...
Loading historical data...
Loading historical data...
Loading historical data...
Loading historical data...
Loading historical data...

Documentation

Showing up to 5 results
|